Location: Mlada Boleslav
(50.4170°N, 14.9000°E)
Time: 20:38:21
(UTC+02:00)

ISS - Visible Passes

Search period start: 16 July 2018 00:00
Search period end: 26 July 2018 00:00
Orbit: 402 x 408 km, 51.6° (Epoch: 17 July)

Date Brightness Start Highest point End Pass type
(mag) Time Alt. Az. Time Alt. Az. Time Alt. Az.
16 Jul -3.0 00:59:18 37° ESE 00:59:18 37° ESE 01:01:40 10° E visible
16 Jul -3.6 02:31:55 12° W 02:34:55 72° N 02:38:14 10° E visible
16 Jul -3.8 04:08:13 10° WNW 04:11:32 88° NNE 04:14:51 10° ESE visible
17 Jul -1.7 00:08:35 16° E 00:08:35 16° E 00:09:30 10° E visible
17 Jul -3.8 01:41:12 28° W 01:42:49 83° NNW 01:46:07 10° ENE visible
17 Jul -3.6 03:16:08 10° WNW 03:19:26 75° N 03:22:44 10° E visible
18 Jul -4.0 00:50:12 58° SW 00:50:43 78° SSE 00:54:01 10° ENE visible
18 Jul -3.5 02:24:01 10° W 02:27:18 69° N 02:30:36 10° E visible
18 Jul -3.8 04:00:33 10° WNW 04:03:50 63° SSW 04:07:06 10° ESE visible
18 Jul -3.8 23:58:10 49° SSW 23:58:39 56° SSE 00:01:54 10° ENE visible
19 Jul -3.6 01:31:51 10° W 01:35:09 70° N 01:38:27 10° E visible
19 Jul -3.9 03:08:26 10° WNW 03:11:45 85° SSW 03:15:03 10° ESE visible
19 Jul -3.4 23:03:34 10° SW 23:06:38 38° SSE 23:09:42 10° E visible
20 Jul -3.8 00:39:42 10° W 00:43:00 78° N 00:46:18 10° ENE visible
20 Jul -3.8 02:16:19 10° WNW 02:19:37 79° N 02:22:55 10° E visible
20 Jul -3.3 03:52:54 10° W 03:55:59 37° SSW 03:59:04 10° SE visible
20 Jul -2.8 22:11:53 10° SSW 22:14:39 25° SE 22:17:24 10° E visible
20 Jul -4.0 23:47:34 10° WSW 23:50:52 86° SSE 23:54:09 10° ENE visible
21 Jul -3.6 01:24:10 10° W 01:27:27 70° N 01:30:45 10° E visible
21 Jul -3.8 03:00:42 10° WNW 03:03:57 55° SSW 03:07:11 10° SE visible
21 Jul -3.9 22:55:29 10° WSW 22:58:44 64° SSE 23:02:00 10° ENE visible
22 Jul -3.6 00:31:59 10° W 00:35:16 69° N 00:38:33 10° E visible
22 Jul -4.0 02:08:33 10° WNW 02:11:50 77° SSW 02:15:08 10° ESE visible
22 Jul -2.5 03:45:25 10° W 03:47:59 21° SW 03:50:33 10° SSE visible
22 Jul -3.5 22:03:31 10° SW 22:06:39 44° SSE 22:09:48 10° E visible
22 Jul -3.7 23:39:47 10° W 23:43:04 74° N 23:46:22 10° ENE visible
23 Jul -3.9 01:16:23 10° WNW 01:19:41 84° N 01:20:45 40° E visible
23 Jul -1.3 02:53:01 10° W 02:53:14 11° W 02:53:14 11° W visible
23 Jul -3.9 22:47:36 10° WSW 22:50:53 87° NNW 22:54:11 10° ENE visible
24 Jul -3.7 00:24:12 10° W 00:27:29 72° N 00:29:02 29° E visible
24 Jul -1.7 02:00:45 10° W 02:01:37 17° W 02:01:37 17° W visible
24 Jul -3.9 21:55:26 10° WSW 21:58:43 72° SSE 22:02:00 10° ENE visible
24 Jul -3.5 23:31:59 10° W 23:35:16 68° N 23:38:00 14° E visible
25 Jul -2.8 01:08:32 10° WNW 01:10:37 35° W 01:10:37 35° W visible
25 Jul -3.6 22:39:45 10° W 22:43:02 71° N 22:46:19 10° E visible
